GW0126 Weather Reports


time (UTC)temp
C
wind
direction
speed
KPH
gust
KPH
rain 1hr
cm
rain 24hr
cm
rain mn
cm
humidity
%
barometer
mb
20260507061015 7 226 0.0 1.6 0.00 0.00 0.00 88 1011.9
20260507060034 7 242 1.6 1.6 0.00 0.00 0.00 88 1012.0
20260507054504 7 252 1.6 1.6 0.00 0.00 0.00 89 1011.9
20260507053915 7 227 0.0 3.2 0.00 0.00 0.00 90 1011.8
20260507053447 7 220 0.0 1.6 0.00 0.00 0.00 90 1011.8
20260507052855 7 227 1.6 1.6 0.00 0.00 0.00 90 1011.7
20260507052345 7 243 1.6 3.2 0.00 0.00 0.00 90 1011.6
20260507051835 7 229 0.0 0.0 0.00 0.00 0.00 89 1011.2
20260507051325 7 244 3.2 3.2 0.00 0.00 0.00 89 1011.3
20260507050815 7 220 0.0 0.0 0.00 0.00 0.00 89 1011.6
20260507050305 7 237 0.0 3.2 0.00 0.00 0.00 89 1011.6
20260507045755 7 226 0.0 1.6 0.00 0.00 0.00 89 1011.3
20260507044225 7 199 0.0 1.6 0.00 0.00 0.00 90 1011.3
20260507043715 7 238 0.0 1.6 0.00 0.00 0.00 89 1011.3
20260507043205 7 233 0.0 1.6 0.00 0.00 0.00 89 1011.4
20260507042734 7 233 0.0 1.6 0.00 0.00 0.00 89 1011.4
20260507042145 7 227 0.0 1.6 0.00 0.00 0.00 89 1011.3
20260507041635 7 224 0.0 3.2 0.00 0.00 0.00 89 1011.1
20260507041125 7 226 1.6 4.8 0.00 0.00 0.00 89 1011.0
20260507040143 7 233 1.6 3.2 0.00 0.00 0.00 90 1011.1
20260507035636 7 250 1.6 4.8 0.00 0.00 0.00 90 1011.0
20260507034616 7 197 0.0 1.6 0.00 0.00 0.00 91 1010.9
20260507034025 7 236 1.6 1.6 0.00 0.00 0.00 91 1011.0
20260507033515 7 209 0.0 3.2 0.00 0.00 0.00 91 1010.7
20260507033005 7 242 0.0 1.6 0.00 0.00 0.00 91 1010.7
20260507032458 7 221 0.0 1.6 0.00 0.00 0.00 91 1010.6
20260507031435 7 243 1.6 1.6 0.00 0.00 0.00 91 1010.6
20260507030415 7 222 0.0 1.6 0.00 0.00 0.00 91 1010.7
20260507025905 7 236 3.2 3.2 0.00 0.00 0.00 91 1010.7
20260507025355 7 233 0.0 3.2 0.00 0.00 0.00 91 1010.5
20260507023828 7 214 0.0 3.2 0.00 0.00 0.00 91 1010.6
20260507023353 7 192 1.6 3.2 0.00 0.00 0.00 92 1010.5
20260507022255 7 235 0.0 1.6 0.00 0.00 0.00 92 1010.6
20260507021823 7 233 0.0 3.2 0.00 0.00 0.00 92 1010.4
20260507021313 7 230 1.6 3.2 0.00 0.00 0.00 92 1010.3
20260507020725 7 235 0.0 3.2 0.00 0.00 0.00 92 1010.5
20260507013624 7 212 0.0 3.2 0.00 0.00 0.00 92 1010.7
20260507013115 7 231 0.0 0.0 0.00 0.00 0.00 92 1010.5
20260507012133 7 241 1.6 6.4 0.00 0.00 0.00 92 1010.2
20260507011545 7 248 1.6 1.6 0.00 0.00 0.00 92 1010.4
20260507010524 7 221 0.0 3.2 0.00 0.00 0.00 92 1010.3
20260507004447 7 232 0.0 6.4 0.00 0.00 0.00 92 1009.9
20260507004012 6 238 1.6 4.8 0.00 0.00 0.00 92 1009.8
20260507002915 7 233 0.0 4.8 0.00 0.00 0.00 92 1009.6
20260507001854 7 213 0.0 0.0 0.00 0.00 0.00 92 1009.7
20260507000324 7 233 0.0 1.6 0.00 0.00 0.00 92 1009.6
20260506235814 7 249 1.6 3.2 0.00 0.00 0.00 91 1009.8
20260506235343 7 223 1.6 1.6 0.00 0.00 0.00 91 1009.9
20260506234757 7 228 0.0 1.6 0.00 0.00 0.00 92 1009.8
20260506234244 7 218 1.6 1.6 0.00 0.00 0.00 92 1009.8
20260506233734 7 257 1.6 4.8 0.00 0.00 0.00 91 1009.9
20260506233224 7 244 1.6 3.2 0.00 0.00 0.00 92 1009.9
20260506232714 7 221 0.0 1.6 0.00 0.00 0.00 92 1009.7
20260506231654 7 229 1.6 6.4 0.00 0.00 0.00 92 1009.8
20260506230635 7 233 0.0 6.4 0.00 0.00 0.00 92 1009.6
20260506225614 7 248 0.0 1.6 0.00 0.00 0.00 94 1009.7
20260506224554 7 237 1.6 3.2 0.00 0.00 0.00 94 1009.4
20260506224044 7 296 1.6 4.8 0.00 0.00 0.00 93 1009.4
20260506222552 8 276 1.6 3.2 0.00 0.00 0.00 93 1009.3
20260506222004 8 241 3.2 4.8 0.00 0.00 0.00 93 1009.4
20260506221454 8 310 3.2 4.8 0.00 0.00 0.00 92 1009.4
20260506220944 8 276 3.2 3.2 0.00 0.00 0.00 92 1009.1
20260506220434 8 223 0.0 6.4 0.00 0.00 0.00 93 1009.1
20260506215924 8 235 1.6 1.6 0.00 0.00 2.87 93 1009.1
20260506214904 9 241 0.0 3.2 0.00 0.00 2.87 93 1009.1
20260506213334 9 261 1.6 1.6 0.00 0.00 2.87 94 1008.9
20260506212827 9 228 0.0 3.2 0.00 0.00 2.87 94 1008.8
20260506211804 9 284 3.2 3.2 0.00 0.00 2.87 94 1008.9
20260506211254 10 227 0.0 1.6 0.00 0.00 2.87 94 1008.9
20260506210744 10 229 0.0 1.6 0.00 0.00 2.87 94 1008.7
20260506205727 10 230 0.0 1.6 0.00 0.00 2.87 94 1008.8
20260506204154 10 213 0.0 1.6 0.00 0.00 2.87 95 1008.8
20260506203647 10 238 1.6 4.8 0.00 0.00 2.87 95 1008.8
20260506202624 10 231 0.0 3.2 0.00 0.00 2.87 94 1008.7
20260506201726 10 238 0.0 3.2 0.00 0.00 2.87 94 1008.7
20260506201132 10 244 0.0 1.6 0.00 0.00 2.87 94 1008.6
20260506200544 10 218 0.0 1.6 0.00 0.00 2.87 94 1008.7
20260506195524 10 230 0.0 1.6 0.00 0.00 2.87 95 1008.7
20260506195014 10 255 1.6 3.2 0.00 0.00 2.87 95 1008.4
20260506194504 10 229 0.0 1.6 0.00 0.00 2.87 95 1008.4
20260506193444 10 231 0.0 0.0 0.00 0.00 2.87 95 1008.4
20260506192934 10 233 0.0 0.0 0.00 0.00 2.87 95 1008.2
20260506192423 10 238 0.0 1.6 0.00 0.00 2.87 95 1008.4
20260506191914 10 223 0.0 0.0 0.00 0.00 2.87 95 1008.6
20260506191442 10 229 0.0 0.0 0.00 0.00 2.87 95 1008.3
20260506190854 10 228 0.0 0.0 0.00 0.00 2.87 95 1008.4
20260506190422 10 250 1.6 1.6 0.00 0.00 2.87 95 1008.3
20260506185915 10 245 0.0 1.6 0.00 0.00 2.87 95 1008.0
20260506184814 10 240 1.6 4.8 0.00 0.00 2.87 94 1007.8
20260506183754 10 244 0.0 1.6 0.00 0.00 2.87 94 1007.8
20260506182224 10 247 1.6 1.6 0.00 0.00 2.87 94 1007.8
20260506181752 10 253 1.6 3.2 0.00 0.00 2.87 94 1007.8
20260506181203 10 238 0.0 1.6 0.00 0.00 2.87 94 1007.6
20260506180143 10 242 1.6 3.2 0.00 0.00 2.87 93 1007.6
20260506175633 11 234 0.0 1.6 0.00 0.00 2.87 93 1007.5
20260506174103 11 220 0.0 1.6 0.00 0.00 2.87 94 1007.3
20260506172612 11 199 1.6 3.2 0.00 0.00 2.87 94 1007.6
20260506172024 11 259 1.6 3.2 0.00 0.00 2.87 93 1007.4
20260506170531 11 226 0.0 1.6 0.00 0.00 2.87 93 1007.5
20260506170021 11 278 1.6 4.8 0.00 0.00 2.87 93 1007.1
20260506165436 11 254 1.6 6.4 0.00 0.00 2.87 93 1007.3
20260506164923 11 259 3.2 3.2 0.00 0.00 2.87 92 1007.1
20260506164416 11 263 1.6 4.8 0.00 0.00 2.87 92 1007.1
20260506163941 11 241 0.0 4.8 0.00 0.00 2.87 92 1007.1
20260506163355 11 246 1.6 3.2 0.00 0.00 2.87 92 1007.0
20260506162844 12 248 1.6 3.2 0.00 0.00 2.87 91 1007.4
20260506162333 12 245 1.6 3.2 0.00 0.00 2.87 90 1007.1
20260506160803 12 233 0.0 1.6 0.00 0.00 2.87 90 1007.2
20260506160253 12 180 0.0 0.0 0.00 0.00 2.87 91 1007.1
20260506155743 12 229 0.0 1.6 0.00 0.00 2.87 92 1007.3
20260506155233 12 232 0.0 3.2 0.00 0.00 2.87 93 1007.3
20260506154213 12 223 0.0 1.6 0.00 0.00 2.87 94 1007.3
20260506153703 12 243 1.6 1.6 0.00 0.00 2.87 94 1007.4
20260506153153 12 225 1.6 1.6 0.00 0.00 2.87 95 1007.3
20260506152133 12 266 1.6 3.2 0.00 0.00 2.87 94 1007.3
20260506151623 12 223 0.0 1.6 0.00 0.00 2.87 94 1007.3
20260506150603 12 227 0.0 1.6 0.00 0.00 2.87 94 1007.2
20260506150131 12 234 0.0 3.2 0.00 0.00 2.87 94 1007.1
20260506145033 12 225 0.0 3.2 0.00 0.00 2.87 92 1007.0
20260506144523 12 259 1.6 1.6 0.00 0.00 2.87 92 1007.0
20260506142443 12 268 0.0 4.8 0.00 0.00 2.87 91 1007.1
20260506142011 12 231 0.0 1.6 0.00 0.00 2.87 91 1007.0
20260506135853 12 247 1.6 1.6 0.00 0.00 2.87 95 1007.2
20260506135343 12 221 0.0 3.2 0.00 0.00 2.87 94 1007.1
20260506134323 12 228 1.6 3.2 0.00 0.00 2.87 95 1007.2
20260506133851 12 222 0.0 1.6 0.00 0.00 2.87 95 1007.0
20260506133341 12 215 1.6 4.8 0.00 0.00 2.87 97 1007.0
20260506132753 12 243 0.0 3.2 0.00 0.00 2.87 98 1007.3
20260506132243 12 219 0.0 1.6 0.00 0.00 2.87 99 1007.2
20260506131811 11 217 0.0 1.6 0.00 0.00 2.87 99 1007.2
20260506131301 11 232 3.2 4.8 0.00 0.00 2.87 99 1007.1
20260506130713 11 257 1.6 1.6 0.00 0.00 2.87 99 1007.2
20260506130326 11 209 0.0 1.6 0.03 0.00 2.87 99 1007.0
20260506125221 11 273 3.2 3.2 0.03 0.00 2.87 99 1007.1
20260506124711 11 285 3.2 4.8 0.03 0.00 2.87 99 1006.9
20260506124122 11 237 1.6 3.2 0.03 0.00 2.87 99 1007.2
20260506123613 11 230 0.0 1.6 0.03 0.00 2.87 99 1006.9
20260506122552 11 234 0.0 3.2 0.03 0.00 2.87 99 1006.9
20260506121022 11 230 1.6 1.6 0.03 0.00 2.87 99 1006.9
20260506115452 11 285 0.0 4.8 0.00 0.00 2.84 99 1006.7
20260506114942 11 220 0.0 1.6 0.00 0.00 2.84 99 1006.7
20260506113413 11 216 0.0 0.0 0.00 0.00 2.84 99 1006.7
20260506112905 11 224 0.0 1.6 0.00 0.00 2.84 99 1006.6
20260506112352 11 216 0.0 0.0 0.00 0.00 2.84 99 1006.3
20260506111921 11 223 0.0 0.0 0.00 0.00 2.84 99 1006.3
20260506111412 11 98 3.2 4.8 0.00 0.00 2.84 99 1006.5
20260506110822 11 207 0.0 1.6 0.00 0.00 2.84 99 1006.5
20260506110354 11 223 0.0 1.6 0.00 0.00 2.84 99 1006.4
20260506105252 11 219 0.0 1.6 0.03 0.00 2.84 99 1006.1
20260506103722 11 220 0.0 1.6 0.05 0.00 2.84 99 1006.2
20260506103212 11 222 0.0 1.6 0.08 0.00 2.84 99 1006.3
20260506102702 11 220 0.0 0.0 0.10 0.00 2.84 99 1006.2
20260506102152 11 225 0.0 1.6 0.13 0.00 2.84 99 1006.0
20260506101642 11 207 0.0 1.6 0.15 0.00 2.84 99 1006.3
20260506101132 11 231 1.6 1.6 0.18 0.00 2.84 99 1005.8
20260506100622 10 227 0.0 3.2 0.18 0.00 2.84 99 1006.0
20260506095052 10 236 0.0 3.2 0.20 0.00 2.82 99 1005.8
20260506094542 10 214 1.6 1.6 0.23 0.00 2.82 99 1006.0
20260506094032 10 267 1.6 1.6 0.23 0.00 2.79 99 1005.8
20260506093051 10 253 0.0 3.2 0.23 0.00 2.74 99 1005.7
20260506091952 10 214 0.0 3.2 0.25 0.00 2.69 99 1005.5
20260506091442 10 217 0.0 3.2 0.25 0.00 2.67 99 1005.7
20260506091010 10 219 0.0 1.6 0.30 0.00 2.67 99 1005.7
20260506090501 10 258 0.0 1.6 0.30 0.00 2.64 99 1005.4
20260506085912 10 260 3.2 4.8 0.33 0.00 2.62 99 1005.7
20260506085402 10 229 0.0 3.2 0.36 0.00 2.62 99 1005.3
20260506083832 10 220 1.6 6.4 0.43 0.00 2.54 99 1005.4
20260506083400 10 259 0.0 3.2 0.46 0.00 2.51 99 1005.3
20260506081752 10 221 0.0 1.6 0.53 0.00 2.41 99 1005.4
20260506081320 10 231 1.6 3.2 0.56 0.00 2.39 99 1005.3
20260506073122 10 240 0.0 0.0 0.46 0.00 2.01 99 1005.1
20260506072612 10 224 0.0 1.6 0.43 0.00 1.96 99 1005.1
20260506072140 10 234 0.0 1.6 0.41 0.00 1.91 99 1005.0
20260506071120 10 219 0.0 1.6 0.28 0.00 1.78 99 1005.1